Location: ??
(35.5052°N, 139.7262°E)
Time: 07:07:19
(UTC+00:00)

Envisat - Pass Details

Date: 30 September 2021
Orbit: 764 x 766 km, 98.2° (Epoch: 23 October)

Event Time Altitude Azimuth Distance (km) Brightness Sun altitude
Rises 19:15:19 0° 21° (NNE) 3,235 6.7 -17.2°
Reaches altitude 10° 19:17:45 10° 28° (NNE) 2,305 6.0 -16.7°
Maximum altitude 19:22:32 41° 98° (E) 1,099 4.4 -15.7°
Drops below altitude 10° 19:27:17 10° 169° (SSE) 2,290 5.5 -14.7°
Sets 19:29:42 0° 176° (S) 3,212 6.2 -14.2°
